Weather History for Camarillo, CA

Change the Weather History Date:

Wednesday, April 25, 2012

  Actual Average Record
Temperature  
Mean Temperature 69 °F 59 °F  
Max Temperature 81 °F 70 °F 90 °F (2001)
Min Temperature 56 °F 48 °F 38 °F (1964)
Degree Days  
Heating Degree Days 0 6  
Month to date heating degree days 184 177  
Since 1 July heating degree days 1544 1790  
Cooling Degree Days 4 0  
Month to date cooling degree days 4 0  
Year to date cooling degree days 15 13  
Growing Degree Days 17 (Base 50)    
Moisture  
Dew Point 54 °F    
Average Humidity 68    
Maximum Humidity 93    
Minimum Humidity 42    
Precipitation  
Precipitation 0.08 in 0.04 in 0.60 in (1959)
Month to date precipitation 1.63 0.64  
Year to date precipitation 5.61 10.47  
Since 1 July precipitation 8.64 14.71  
Sea Level Pressure  
Sea Level Pressure 29.93 in    
Wind  
Wind Speed 9 mph (SSW)    
Max Wind Speed 37 mph    
Max Gust Speed 49 mph    
Visibility 10 miles    
Events Rain    
T = Trace of Precipitation, MM = Missing Value Source: NWS Daily Summary

Daily Weather History Graph

Daily Weather History Graph

Search for Another Location

Airport:

Trip Planner

Search our weather history database for the weather conditions in past years. The results will help you decide how hot, cold, wet, or windy it might be!

Date:

Astronomy

Apr. 25, 2012 Rise Set
Actual Time 6:12 AM PDT 7:36 PM PDT
Civil Twilight 5:46 AM PDT 8:02 PM PDT
Nautical Twilight 5:14 AM PDT 8:34 PM PDT
Astronomical Twilight 4:41 AM PDT 9:07 PM PDT
Moon 9:08 AM PDT (4/25) 11:40 PM PDT (4/25)
Length of Visible Light 14h 16m
Length of Day
13h 23m
Waxing Crescent, 17% of the Moon is Illuminated
Apr 25
Waxing Crescent
Apr 29
First Quarter
May 5
Full
May 12
Last Quarter
May 20
New

Hourly Weather History & Observations

Time (PDT) Temp. Dew Point Humidity Pressure Visibility Wind Dir Wind Speed Gust Speed Precip Events Conditions
12:55 AM 57.9 °F 52.0 °F 81% 30.06 in 10.0 mi NNW 3.5 mph - N/A   Clear
1:55 AM 57.9 °F 52.0 °F 81% 30.04 in 10.0 mi East 3.5 mph - N/A   Scattered Clouds
2:55 AM 57.9 °F 53.1 °F 84% 30.03 in 10.0 mi Calm Calm - 0.00 in Rain Light Rain
3:55 AM 57.0 °F 53.1 °F 87% 30.01 in 10.0 mi ENE 6.9 mph - 0.00 in   Mostly Cloudy
4:55 AM 55.9 °F 53.1 °F 90% 29.99 in 10.0 mi Calm Calm - N/A   Partly Cloudy
5:55 AM 57.0 °F 53.1 °F 87% 29.98 in 10.0 mi Calm Calm - N/A   Clear
6:55 AM 57.0 °F 53.1 °F 87% 29.98 in 10.0 mi ENE 3.5 mph - N/A   Clear
7:55 AM 59.0 °F 53.1 °F 81% 29.97 in 10.0 mi WNW 8.1 mph - N/A   Clear
8:55 AM 63.0 °F 53.1 °F 70% 29.96 in 10.0 mi East 3.5 mph - N/A   Clear
9:55 AM 64.9 °F 54.0 °F 68% 29.93 in 10.0 mi East 4.6 mph - N/A   Clear
10:55 AM 72.0 °F 54.0 °F 53% 29.89 in 10.0 mi East 6.9 mph - N/A   Clear
12:55 PM 79.0 °F 54.0 °F 42% 29.83 in 10.0 mi SW 5.8 mph - N/A   Partly Cloudy
2:55 PM 73.0 °F 55.9 °F 55% 29.79 in 10.0 mi WSW 12.7 mph - N/A   Mostly Cloudy
3:55 PM 64.9 °F 55.0 °F 70% 29.85 in 10.0 mi West 33.4 mph 41.4 mph 0.00 in   Mostly Cloudy
4:55 PM 66.0 °F 54.0 °F 65% 29.83 in 10.0 mi West 21.9 mph 32.2 mph N/A   Partly Cloudy
5:55 PM 64.9 °F 52.0 °F 63% 29.86 in 10.0 mi West 18.4 mph - N/A   Partly Cloudy
6:55 PM 63.0 °F 53.1 °F 70% 29.87 in 10.0 mi West 12.7 mph - N/A   Partly Cloudy
7:55 PM 61.0 °F 53.1 °F 75% 29.88 in 10.0 mi SSE 6.9 mph - 0.00 in   Scattered Clouds
8:55 PM 61.0 °F 55.0 °F 81% 29.91 in 9.0 mi South 6.9 mph - 0.00 in Rain Light Rain
9:55 PM 57.9 °F 55.9 °F 93% 29.92 in 9.0 mi SSW 4.6 mph - 0.02 in Rain Light Rain
10:55 PM 59.0 °F 57.0 °F 93% 29.92 in 10.0 mi Calm Calm - 0.03 in Rain Light Rain
11:55 PM 59.0 °F 57.0 °F 93% 29.91 in 10.0 mi ENE 9.2 mph - 0.02 in Rain Light Rain